User: anonymous   Login
Location: Mentone
(34.5413°N, 85.5351°W)
Time: 15:21:40
(UTC-05:00)
Language:

A-11 Canister half - Orbit

View from above orbital plane
View from above orbital plane
View from above satellite
View from above satellite

Ground track
Ground track

The orbit data is extracted from the following two-line orbital elements,

1    53U 60009E   16146.96822870 -.00000085 +00000-0 +00000-0 0  9997
2    53 047.2740 153.5616 0097834 016.5663 343.8287 12.17186120487877
Epoch (UTC): 25 May 2016 23:14:14
Eccentricity: 0.0097834
inclination: 47.2740°
perigee height: 1527 km
apogee height: 1683 km
right ascension of ascending node: 153.5616°
argument of perigee: 16.5663°
revolutions per day: 12.17186120
mean anomaly at epoch: 343.8287°
orbit number at epoch: 48787

The dashed part of the orbit path shows where the satellite is in the earth's shadow,  

DLR